Sallisaw, OK

3:00 PM CST on February 13, 2016 (GMT -0600)
Sallisaw Municipal

Weather History for KJSV - November, 2011

Change the Weather History Date:

Wednesday, November 23, 2011

  Actual Average (WUND) Record (WUND)
Temperature  
Mean Temperature 46 °F -  
Max Temperature 59 °F - - (-1)
Min Temperature 33 °F - - (-1)
Degree Days  
Heating Degree Days 19    
Moisture  
Dew Point 41 °F    
Average Humidity 88    
Maximum Humidity 100    
Minimum Humidity 55    
Precipitation  
Precipitation 0.00 in - - ()
Sea Level Pressure  
Sea Level Pressure 30.26 in    
Wind  
Wind Speed 1 mph (SSW)    
Max Wind Speed 5 mph    
Max Gust Speed -    
Visibility 4 miles    
Events Fog    
Averages and records for this station are not official NWS values.
T = Trace of Precipitation, MM = Missing Value Source: NWS Daily Summary

Daily Weather History Graph

Daily Weather History Graph

Search for Another Location

Airport or City:

Trip Planner

Search our weather history database for the weather conditions in past years. The results will help you decide how hot, cold, wet, or windy it might be!

Date:

Astronomy

Nov. 23, 2011 Rise Set
Actual Time 7:02 AM CST 5:08 PM CST
Civil Twilight 6:34 AM CST 5:36 PM CST
Nautical Twilight 6:03 AM CST 6:07 PM CST
Astronomical Twilight 5:33 AM CST 6:37 PM CST
Moon 5:09 AM CST (11/23) 3:50 PM CST (11/23)
Length of Visible Light 11h 01m
Length of Day
10h 06m
Waning Crescent, 3% of the Moon is Illuminated
Nov 23
Waning Crescent
Nov 25
New
Dec 2
First Quarter
Dec 10
Full
Dec 17
Last Quarter

Hourly Weather History & Observations

Time (CST) Temp. Windchill Dew Point Humidity Pressure Visibility Wind Dir Wind Speed Gust Speed Precip Events Conditions
12:15 AM 42.8 °F - 42.8 °F 100% 30.22 in 5.0 mi Calm Calm - N/A   Clear
12:35 AM 42.8 °F 41.1 °F 42.8 °F 100% 30.22 in 4.0 mi WNW 3.5 mph - N/A   Clear
12:55 AM 41.0 °F - 41.0 °F 100% 30.22 in 2.5 mi Calm Calm - N/A   Mist
1:15 AM 39.2 °F 37.0 °F 39.2 °F 100% 30.22 in 0.2 mi WSW 3.5 mph - N/A Fog Fog
1:35 AM 39.2 °F - 39.2 °F 100% 30.23 in 0.2 mi Calm Calm - N/A Fog Fog
1:55 AM 41.0 °F - 41.0 °F 100% 30.23 in 2.0 mi Calm Calm - N/A   Mist
2:15 AM 39.2 °F - 39.2 °F 100% 30.23 in 0.8 mi Calm Calm - N/A   Mist
2:35 AM 37.4 °F - 37.4 °F 100% 30.24 in 1.2 mi Calm Calm - N/A   Mostly Cloudy
2:55 AM 37.4 °F - 37.4 °F 100% 30.23 in 0.2 mi Calm Calm - N/A Fog Fog
3:15 AM 37.4 °F - 37.4 °F 100% 30.24 in 0.2 mi Calm Calm - N/A Fog Fog
3:35 AM 39.2 °F - 39.2 °F 100% 30.24 in 1.0 mi Calm Calm - N/A   Mostly Cloudy
3:55 AM 37.4 °F - 37.4 °F 100% 30.24 in 0.2 mi Calm Calm - N/A Fog Fog
4:15 AM 37.4 °F - 37.4 °F 100% 30.24 in 0.5 mi Calm Calm - N/A Fog Fog
4:35 AM 35.6 °F - 35.6 °F 100% 30.25 in 0.2 mi Calm Calm - N/A Fog Fog
4:55 AM 35.6 °F - 35.6 °F 100% 30.24 in 0.2 mi Calm Calm - N/A Fog Fog
5:15 AM 35.6 °F - 35.6 °F 100% 30.25 in 0.2 mi Calm Calm - N/A Fog Fog
5:35 AM 37.4 °F - 37.4 °F 100% 30.25 in 0.5 mi Calm Calm - N/A Fog Fog
5:55 AM 35.6 °F - 35.6 °F 100% 30.25 in 0.8 mi Calm Calm - N/A   Overcast
6:15 AM 35.6 °F - 35.6 °F 100% 30.26 in 0.2 mi Calm Calm - N/A Fog Fog
6:35 AM 35.6 °F - 35.6 °F 100% 30.27 in 0.8 mi Calm Calm - N/A   Overcast
6:55 AM 33.8 °F - 33.8 °F 100% 30.28 in 0.2 mi Calm Calm - N/A Fog Fog
7:15 AM 33.8 °F - 33.8 °F 100% 30.29 in 0.2 mi Calm Calm - N/A Fog Fog
7:35 AM 33.8 °F - 33.8 °F 100% 30.30 in 0.2 mi Calm Calm - N/A Fog Fog
7:55 AM 35.6 °F - 35.6 °F 100% 30.30 in 0.2 mi Calm Calm - N/A Fog Fog
8:15 AM 35.6 °F - 35.6 °F 100% 30.31 in 0.2 mi Calm Calm - N/A Fog Fog
8:35 AM 35.6 °F - 35.6 °F 100% 30.32 in 0.2 mi Calm Calm - N/A Fog Fog
8:55 AM 37.4 °F - 37.4 °F 100% 30.32 in 0.2 mi Calm Calm - N/A Fog Fog
9:15 AM 39.2 °F - 39.2 °F 100% 30.31 in 0.2 mi Calm Calm - N/A Fog Fog
9:35 AM 41.0 °F - 41.0 °F 100% 30.31 in 0.2 mi Calm Calm - N/A Fog Fog
9:55 AM 41.0 °F - 41.0 °F 100% 30.32 in 0.2 mi Calm Calm - N/A Fog Fog
10:15 AM 42.8 °F - - N/A% 30.31 in 0.2 mi Calm Calm - N/A Fog Fog
10:35 AM 44.6 °F - - N/A% 30.31 in 0.8 mi Calm Calm - N/A   Overcast
10:55 AM 44.6 °F - - N/A% 30.32 in 3.0 mi Calm Calm - N/A   Mist
11:15 AM 46.4 °F 44.3 °F - N/A% 30.31 in 4.0 mi WSW 4.6 mph - N/A   Haze
11:35 AM 48.2 °F - - N/A% 30.30 in 5.0 mi SSW 4.6 mph - N/A   Haze
11:55 AM 50.0 °F - 50.0 °F 100% 30.30 in 7.0 mi Calm Calm - N/A   Clear
12:15 PM 50.0 °F - 50.0 °F 100% 30.28 in 7.0 mi Calm Calm - N/A   Clear
12:35 PM 53.6 °F - 46.4 °F 77% 30.27 in 7.0 mi Calm Calm - N/A   Clear
12:55 PM 55.4 °F - 44.6 °F 67% 30.27 in 7.0 mi Calm Calm - N/A   Clear
1:15 PM 55.4 °F - 44.6 °F 67% 30.26 in 7.0 mi Calm Calm - N/A   Clear
1:35 PM 55.4 °F - 44.6 °F 67% 30.26 in 7.0 mi Calm Calm - N/A   Clear
2:15 PM 59.0 °F - 42.8 °F 55% 30.25 in 10.0 mi SSE 3.5 mph - N/A   Clear
2:35 PM 59.0 °F - 42.8 °F 55% 30.25 in 7.0 mi Calm Calm - N/A   Clear
2:55 PM 59.0 °F - 44.6 °F 59% 30.25 in 10.0 mi Calm Calm - N/A   Clear
3:15 PM 59.0 °F - 44.6 °F 59% 30.25 in 10.0 mi Calm Calm - N/A   Clear
3:35 PM 59.0 °F - 44.6 °F 59% 30.25 in 10.0 mi Calm Calm - N/A   Clear
3:55 PM 59.0 °F - 44.6 °F 59% 30.25 in 10.0 mi Calm Calm - N/A   Clear
4:15 PM 59.0 °F - 44.6 °F 59% 30.25 in 10.0 mi Calm Calm - N/A   Clear
4:35 PM 57.2 °F - 44.6 °F 63% 30.25 in 10.0 mi Calm Calm - N/A   Clear
4:55 PM 55.4 °F - 44.6 °F 67% 30.25 in 10.0 mi ESE 3.5 mph - N/A   Clear
5:15 PM 55.4 °F - 44.6 °F 67% 30.25 in 10.0 mi ESE 3.5 mph - N/A   Clear
5:35 PM 51.8 °F - 44.6 °F 76% 30.25 in 10.0 mi Calm Calm - N/A   Clear
5:55 PM 51.8 °F - 44.6 °F 76% 30.26 in 10.0 mi Calm Calm - N/A   Clear
6:15 PM 50.0 °F - 44.6 °F 82% 30.26 in 10.0 mi Calm Calm - N/A   Clear
6:35 PM 50.0 °F - 44.6 °F 82% 30.27 in 10.0 mi Calm Calm - N/A   Clear
6:55 PM 46.4 °F 45.2 °F 44.6 °F 93% 30.27 in 7.0 mi NE 3.5 mph - N/A   Clear
7:15 PM 46.4 °F 44.3 °F 42.8 °F 87% 30.28 in 7.0 mi ENE 4.6 mph - N/A   Clear
7:35 PM 46.4 °F 44.3 °F 44.6 °F 93% 30.28 in 7.0 mi ENE 4.6 mph - N/A   Clear
7:55 PM 46.4 °F 45.2 °F 42.8 °F 87% 30.28 in 7.0 mi ENE 3.5 mph - N/A   Clear
8:15 PM 46.4 °F 44.3 °F 42.8 °F 87% 30.28 in 7.0 mi ENE 4.6 mph - N/A   Clear
8:35 PM 44.6 °F 42.2 °F 42.8 °F 93% 30.28 in 5.0 mi ENE 4.6 mph - N/A   Clear
8:55 PM 44.6 °F 41.4 °F 44.6 °F 100% 30.28 in 7.0 mi ENE 5.8 mph - N/A   Clear
9:15 PM 46.4 °F 44.3 °F 44.6 °F 93% 30.29 in 5.0 mi ENE 4.6 mph - N/A   Clear
9:35 PM 44.6 °F 41.4 °F 42.8 °F 93% 30.29 in 5.0 mi ENE 5.8 mph - N/A   Clear
9:55 PM 44.6 °F 41.4 °F 44.6 °F 100% 30.29 in 5.0 mi ENE 5.8 mph - N/A   Clear
10:15 PM 44.6 °F 41.4 °F 44.6 °F 100% 30.29 in 5.0 mi East 5.8 mph - N/A   Clear
10:35 PM 44.6 °F 41.4 °F 44.6 °F 100% 30.29 in 5.0 mi East 5.8 mph - N/A   Clear
10:55 PM 44.6 °F 42.2 °F 42.8 °F 93% 30.30 in 4.0 mi ENE 4.6 mph - N/A   Clear
11:15 PM 44.6 °F 42.2 °F 42.8 °F 93% 30.30 in 4.0 mi ENE 4.6 mph - N/A   Clear
11:35 PM 42.8 °F 39.3 °F 42.8 °F 100% 30.29 in 4.0 mi East 5.8 mph - N/A   Clear
11:55 PM 42.8 °F 40.1 °F 42.8 °F 100% 30.30 in 4.0 mi ENE 4.6 mph - N/A   Clear